Weather reports worldwide

Advertisment
Bozeman, mt, United States of America (2072079): temperature & dewpoint: 09.09.2019 02:00:00 - 15.09.2019 02:00:00 (MDT)Bozeman, mt, United States of America (2072079): wind speed & gusts: 09.09.2019 02:00:00 - 15.09.2019 02:00:00 (MDT)Bozeman, mt, United States of America (2072079): wind direction: 09.09.2019 02:00:00 - 15.09.2019 02:00:00 (MDT)Bozeman, mt, United States of America (2072079): reduced air pressure: 09.09.2019 02:00:00 - 15.09.2019 02:00:00 (MDT)Bozeman, mt, United States of America (2072079): visibility: 09.09.2019 02:00:00 - 15.09.2019 02:00:00 (MDT)Bozeman, mt, United States of America (2072079): precipitation: 09.09.2019 02:00:00 - 15.09.2019 02:00:00 (MDT)
Date & Time tt [°C] td [°C] ff [km/h] ff [kn] fx [km/h] fx [kn] dd ppp [hPa] vv [km] rr [mm]
15.09.2019 02:00:00 12,2 6,1 11 6 - - SE 1011,1 16 -
15.09.2019 01:00:00 12,8 6,7 0 0 - - N 1011,0 16 -
15.09.2019 00:00:00 11,7 6,7 8 4 - - SSE 1011,3 16 -
14.09.2019 23:00:00 15,0 6,1 8 4 - - ENE 1011,5 16 -
14.09.2019 22:00:00 18,3 5,0 0 0 - - N 1011,6 16 -
14.09.2019 21:00:00 16,1 7,2 16 9 - - SE 1012,3 16 -
14.09.2019 20:00:00 21,7 5,0 13 7 - - S 1012,0 16 -
14.09.2019 19:00:00 26,1 2,8 15 8 - - SSW 1011,2 16 -
14.09.2019 18:00:00 28,3 2,2 15 8 - - SW 1011,0 16 -
14.09.2019 17:00:00 28,3 0,6 24 13 - - SW 1011,3 16 -
14.09.2019 16:00:00 28,3 1,7 26 14 - - WSW 1011,7 16 -
14.09.2019 15:00:00 27,2 2,2 28 15 48 26 SW 1012,7 16 -
14.09.2019 14:00:00 27,2 2,8 29 16 - - WSW 1013,4 16 -
14.09.2019 13:00:00 24,4 3,9 5 3 - - - 1014,5 16 -
14.09.2019 12:00:00 23,3 3,9 0 0 - - N 1015,3 16 -
14.09.2019 11:00:00 20,6 3,9 5 3 - - - 1016,2 16 -
14.09.2019 10:00:00 16,1 6,1 5 3 - - ESE 1017,2 16 -
14.09.2019 09:00:00 12,8 6,7 13 7 - - SE 1017,6 16 -
14.09.2019 08:00:00 8,9 6,7 0 0 - - N 1018,1 16 -
14.09.2019 07:00:00 7,8 5,0 0 0 - - N 1017,2 16 -
14.09.2019 06:00:00 7,8 5,0 9 5 - - SE 1016,8 16 -
14.09.2019 05:00:00 7,8 5,6 8 4 - - ESE 1016,6 16 -
14.09.2019 04:00:00 8,3 5,6 11 6 - - SE 1016,3 16 -
14.09.2019 03:00:00 9,4 6,1 15 8 - - SSE 1016,3 16 -
14.09.2019 02:00:00 10,6 6,7 13 7 - - SE 1016,7 16 -
14.09.2019 01:00:00 12,8 6,7 8 4 - - E 1016,3 16 -
14.09.2019 00:00:00 14,4 6,1 13 7 - - WNW 1015,7 16 -
13.09.2019 23:00:00 15,6 7,2 0 0 - - N 1015,9 16 -
13.09.2019 22:00:00 16,1 7,8 0 0 - - N 1016,0 16 -
13.09.2019 21:00:00 18,9 5,6 5 3 - - WSW 1015,6 16 -
13.09.2019 20:00:00 19,4 5,6 11 6 - - WNW 1015,4 16 0,0
13.09.2019 19:00:00 21,7 3,9 15 8 - - WNW 1015,2 16 0,0
13.09.2019 18:00:00 23,3 2,2 13 7 - - WNW 1015,2 16 -
13.09.2019 17:00:00 23,9 1,1 13 7 - - WSW 1014,9 16 -
13.09.2019 16:00:00 24,4 1,1 16 9 - - WSW 1015,7 16 -
13.09.2019 15:00:00 24,4 1,7 18 10 - - SW 1016,1 16 -
13.09.2019 14:00:00 23,9 3,9 13 7 - - S 1017,0 16 -
13.09.2019 13:00:00 22,2 5,0 9 5 - - WSW 1018,3 16 -
13.09.2019 12:00:00 21,1 5,6 8 4 - - E 1019,0 16 -
13.09.2019 11:00:00 17,2 7,2 8 4 - - ENE 1020,5 16 -
13.09.2019 10:00:00 14,4 6,1 0 0 - - N 1021,5 16 -
13.09.2019 09:00:00 10,0 5,0 0 0 - - N 1022,0 16 -
13.09.2019 08:00:00 6,7 4,4 0 0 - - N 1021,9 16 -
13.09.2019 07:00:00 5,0 3,3 5 3 - - SSE 1021,3 16 -
13.09.2019 06:00:00 4,4 2,8 8 4 - - SE 1021,3 16 -
13.09.2019 05:00:00 6,1 3,3 9 5 - - SE 1021,1 16 -
13.09.2019 04:00:00 5,0 3,3 9 5 - - SE 1021,7 16 -
13.09.2019 03:00:00 6,7 3,9 11 6 - - ESE 1022,1 16 -
13.09.2019 02:00:00 6,7 4,4 11 6 - - SE 1022,2 16 -
13.09.2019 01:00:00 7,8 5,0 9 5 - - ESE 1022,3 16 -
13.09.2019 00:00:00 8,3 5,0 15 8 - - SE 1022,5 16 -
12.09.2019 23:00:00 9,4 5,6 15 8 - - SSE 1022,4 16 -
12.09.2019 22:00:00 10,6 6,7 16 9 - - SSE 1022,4 16 -
12.09.2019 21:00:00 12,2 6,7 13 7 - - SE 1022,8 16 -
12.09.2019 20:00:00 15,0 5,0 9 5 - - ESE 1022,8 16 -
12.09.2019 19:00:00 20,6 1,7 0 0 - - N 1022,0 16 -
12.09.2019 18:00:00 20,6 1,1 9 5 - - WSW 1021,9 16 -
12.09.2019 17:00:00 20,6 2,2 13 7 - - NW 1022,3 16 -
12.09.2019 16:00:00 20,6 3,9 9 5 - - NW 1022,8 16 -
12.09.2019 15:00:00 19,4 5,0 - - - - - 1023,7 16 -
12.09.2019 14:00:00 18,9 5,0 8 4 - - NNE 1024,3 16 -
12.09.2019 13:00:00 17,8 5,6 9 5 - - - 1025,0 16 -
12.09.2019 12:00:00 15,6 5,6 5 3 - - - 1025,9 16 -
12.09.2019 11:00:00 14,4 6,7 5 3 - - - 1026,5 16 -
12.09.2019 10:00:00 13,9 6,7 5 3 - - NE 1026,3 16 -
12.09.2019 09:00:00 10,6 7,2 0 0 - - N 1026,5 16 -
12.09.2019 08:00:00 6,7 5,6 0 0 - - N 1026,7 16 -
12.09.2019 07:00:00 6,7 6,1 5 3 - - SE 1026,4 16 -
12.09.2019 06:00:00 8,9 7,8 0 0 - - N 1025,8 16 -
12.09.2019 05:00:00 9,4 7,8 0 0 - - N 1025,2 16 -
12.09.2019 04:00:00 10,0 7,8 8 4 - - S 1024,6 16 -
12.09.2019 03:00:00 8,9 7,2 5 3 - - S 1024,7 16 -
12.09.2019 02:00:00 8,9 7,8 8 4 - - SE 1024,5 16 -
12.09.2019 01:00:00 8,9 7,2 5 3 - - ESE 1024,5 16 -
12.09.2019 00:00:00 8,9 7,2 5 3 - - SW 1024,2 16 -
11.09.2019 23:00:00 8,9 6,7 5 3 - - NW 1024,5 16 -
11.09.2019 22:00:00 10,0 6,7 5 3 - - WNW 1023,9 16 -
11.09.2019 21:00:00 11,7 7,8 8 4 - - W 1023,4 16 -
11.09.2019 20:00:00 11,7 7,8 5 3 - - N 1022,7 16 -
11.09.2019 19:00:00 12,8 7,2 8 4 - - - 1021,7 16 -
11.09.2019 18:00:00 12,8 7,2 11 6 - - WNW 1021,1 16 -
11.09.2019 17:00:00 12,2 7,2 13 7 - - NNW 1020,6 16 -
11.09.2019 16:00:00 12,8 7,2 13 7 - - NW 1019,9 16 -
11.09.2019 15:00:00 12,2 7,8 11 6 - - WNW 1019,6 16 -
11.09.2019 14:00:00 11,7 7,2 18 10 - - NW 1019,7 16 -
11.09.2019 13:00:00 11,1 8,3 16 9 - - NNW 1019,5 16 0,0
11.09.2019 12:00:00 10,6 8,3 11 6 - - NNW 1019,3 16 0,0
11.09.2019 11:00:00 10,0 8,3 11 6 - - WNW 1019,2 11 0,0
11.09.2019 10:00:00 9,4 8,3 9 5 - - W 1018,7 16 0,0
11.09.2019 09:00:00 8,9 7,8 8 4 - - W 1018,6 11 0,0
11.09.2019 08:00:00 8,9 7,8 9 5 - - WNW 1017,8 16 0,5
11.09.2019 07:00:00 8,9 7,8 8 4 - - W 1017,5 11 0,8
11.09.2019 06:00:00 9,4 7,2 13 7 - - NW 1017,0 16 -
11.09.2019 05:00:00 9,4 7,8 0 0 - - N 1017,0 16 -
11.09.2019 04:00:00 9,4 7,8 8 4 - - W 1016,6 16 -
11.09.2019 03:00:00 9,4 7,8 8 4 - - WNW 1016,7 16 -
11.09.2019 02:00:00 9,4 7,8 11 6 - - WNW 1016,3 16 0,5
11.09.2019 01:00:00 10,0 8,3 9 5 - - WNW 1016,0 16 0,0
11.09.2019 00:00:00 10,6 8,9 8 4 - - W 1016,3 16 0,0
10.09.2019 23:00:00 11,1 8,9 8 4 - - SW 1016,3 16 -
10.09.2019 22:00:00 10,6 8,3 5 3 - - W 1016,2 16 -
10.09.2019 21:00:00 11,1 7,8 15 8 - - NNW 1016,1 16 -
10.09.2019 20:00:00 10,6 8,9 8 4 - - WNW 1015,8 16 -
10.09.2019 19:00:00 11,7 8,3 0 0 - - N 1015,7 16 -
10.09.2019 18:00:00 11,7 7,8 0 0 - - N 1016,0 16 -
10.09.2019 17:00:00 11,7 8,3 5 3 - - NW 1015,6 16 0,0
10.09.2019 16:00:00 11,1 8,3 8 4 - - NW 1015,5 16 0,3
10.09.2019 15:00:00 11,1 8,3 8 4 - - W 1015,8 10 1,0
10.09.2019 14:00:00 11,1 7,8 5 3 - - SSW 1015,3 10 0,5
10.09.2019 13:00:00 11,1 7,8 8 4 - - WSW 1014,9 16 -
10.09.2019 12:00:00 10,0 7,8 8 4 - - - 1014,9 16 -
10.09.2019 11:00:00 9,4 7,8 0 0 - - N 1015,2 16 -
10.09.2019 10:00:00 8,9 7,8 0 0 - - N 1015,5 16 0,0
10.09.2019 09:00:00 7,8 6,7 0 0 - - N 1015,7 16 -
10.09.2019 08:00:00 6,7 5,0 0 0 - - N 1015,4 16 -
10.09.2019 07:00:00 6,1 5,0 0 0 - - N 1015,2 16 -
10.09.2019 06:00:00 6,1 5,0 5 3 - - ESE 1013,6 16 -
10.09.2019 05:00:00 6,1 5,0 0 0 - - N 1014,3 16 -
10.09.2019 04:00:00 6,7 5,6 5 3 - - SSE 1014,0 16 -
10.09.2019 03:00:00 7,2 6,7 9 5 - - S 1013,7 16 -
10.09.2019 02:00:00 8,3 6,7 0 0 - - N 1013,9 16 -
10.09.2019 01:00:00 8,9 7,8 0 0 - - N 1014,0 16 -
10.09.2019 00:00:00 10,0 8,3 0 0 - - N 1014,7 16 -
09.09.2019 23:00:00 8,9 7,8 0 0 - - N 1014,8 16 -
09.09.2019 22:00:00 10,0 8,3 13 7 - - ENE 1014,6 16 -
09.09.2019 21:00:00 11,7 9,4 11 6 - - SW 1014,1 16 -
09.09.2019 20:00:00 11,1 8,3 9 5 - - E 1013,3 10 0,5
09.09.2019 19:00:00 11,7 7,8 18 10 - - WNW 1012,2 11 3,3
09.09.2019 18:00:00 18,3 6,1 13 7 - - SSE 1010,2 16 -
09.09.2019 17:00:00 18,3 6,1 8 4 - - E 1009,9 16 -
09.09.2019 16:00:00 18,3 6,7 0 0 - - N 1010,3 16 -
09.09.2019 15:00:00 17,2 7,2 8 4 - - N 1010,7 16 -
09.09.2019 14:00:00 16,1 8,9 5 3 - - ENE 1011,4 16 -
09.09.2019 13:00:00 13,9 10,0 13 7 - - ESE 1012,4 16 0,0
09.09.2019 12:00:00 12,2 10,0 11 6 - - S 1012,6 16 1,0
09.09.2019 11:00:00 11,7 9,4 0 0 - - N 1012,2 16 0,3
09.09.2019 10:00:00 10,6 9,4 8 4 - - ENE 1011,9 6 4,3
09.09.2019 09:00:00 10,6 8,9 9 5 - - ENE 1011,4 16 0,3
09.09.2019 08:00:00 11,1 9,4 5 3 - - E 1011,0 16 0,3
09.09.2019 07:00:00 11,1 8,9 8 4 - - SW 1010,2 16 0,3
09.09.2019 06:00:00 11,1 8,9 8 4 - - W 1009,6 16 0,0
09.09.2019 05:00:00 12,2 10,0 9 5 - - W 1008,1 16 -
09.09.2019 04:00:00 11,7 10,6 8 4 - - W 1007,4 16 1,0
09.09.2019 03:00:00 11,7 11,1 15 8 - - W 1006,3 8 0,8
09.09.2019 02:00:00 12,2 11,7 0 0 - - N 1006,3 6 2,5

tt = temperature
td = dewpoint
ff = wind speed
fx = gusts
dd = wind direction
ppp = reduced air pressure
vv = visibility
rr = precipitation

Next stations